Find STARLINK-37476

NORAD ID: 68853 Int'l Des: 2026-094Q Owner: SPXS Country: US Constellation: starlink operational
LEOCIRCULARRETROGRADE

現在のビュー

3D地球を読み込み中...

About STARLINK-37476

STARLINK-37476 (NORAD 68853) is a starlink constellation satellite (v2 mini) launched Apr 26, 2026 by SPXS of US. It operates in LEO, CIRCULAR, RETROGRADE orbit with a mass of 575.00 kg.

STARLINK-37476について

説明を読み込み中...

次回通過

Passes for default location (London). Set your location on the main map for personalized predictions.

高度履歴

Loading altitude history...

軌道要素

1 68853U 26094Q 26167.02289639 .00014147 00000-0 43936-3 0 9997
2 68853 97.2836 181.5392 0001397 107.5149 252.6247 15.33469399 7875
Epoch: Jun 16, 2026 • Age: 11 hours

現在のステータス

高度 467.8 km
速度 7.63 km/s
衛星直下点 15.30°N, 101.56°E
打ち上げ日 Apr 26, 2026
運用期間 0.1 years
タイプ internet

技術仕様

分類 Payload
質量 575.00 kg
乾燥質量 530.00 kg
総質量 575.00 kg
長さ 0.30 m
直径 4.10 m
スパン 29.00 m
形状 Box + pan
製造者 SPXS
バスタイプ Starlink V2MO
フェーズステータス In Orbit
所有者/国 SPXS/US

Most Searched